{"data":{"norad_id":47135,"intl_designator":"2020-088P","name":"STARLINK-1845","alt_names":[],"object_type":"PAYLOAD","status":"ACTIVE","operator":null,"country":"US","launch_date":"2020-11-25","launch_site_code":"AFETR","launch_vehicle":null,"mission":null,"orbit_class":"UNKNOWN","rcs_meters":null,"size_class":null,"mass_kg":null,"dimensions":null,"purposes":["comms"],"wikipedia_slug":null,"has_3d_model":false,"image_url":null,"decayed_at":null,"tle_current":{"epoch":"2026-05-24T18:53:46.188096Z","epoch_age_seconds":93135,"freshness":"FRESH","line1":"1 47135U 20088P   26144.78734014  .00078331  00000+0  66983-3 0  9995","line2":"2 47135  53.0463 265.3390 0002680 232.9963 127.0808 15.68799788304079","mean_motion":15.68799788,"eccentricity":0.000268,"inclination_deg":53.0463,"raan_deg":265.339,"arg_perigee_deg":232.9963,"mean_anomaly_deg":127.0808,"bstar":0.00066983,"rev_number":30407,"period_min":91.7899155147,"perigee_km":360.52624214976,"apogee_km":364.13913390254,"semimajor_km":6740.4696880261,"source":"CELESTRAK","updated_at":"2026-05-25T13:38:16.521631Z"}}}